Temperature
21 20 20 21 26 28 29 29 29 29 29 28 27 27 27 27 27 25 22 21 21 20 19 20 20 20 20 20 20 20 19 19 19 19 19 19 19 18 18 18 18 18 18 18 18 18 18 18 18
20 20 21 25 28 29 29 29 29 29 28 27 26 26 27 27 24 22 21 21 20 20 19 19 20 20 20 20 20 20 19 19 19 19 19 19 18 18 18 18 18 18 18 18 18 18 18 18 18
20 21 24 28 29 29 29 30 29 29 27 27 27 26 26 25 22 21 20 20 20 20 19 19 20 20 20 20 19 19 19 19 19 19 19 18 18 18 18 18 18 18 18 18 18 18 18 17 17
21 23 26 28 29 30 30 30 29 29 28 27 27 27 25 22 21 21 20 20 20 19 19 19 19 19 19 19 19 19 19 19 19 19 19 18 18 18 18 18 18 18 18 18 18 18 17 17 17
23 26 29 29 30 30 30 30 29 29 29 27 27 27 25 21 20 20 20 20 20 19 19 19 19 19 19 19 19 19 19 19 19 19 18 18 18 18 18 18 18 18 18 18 18 17 17 17 17
26 28 29 30 30 30 31 30 29 29 29 27 27 27 24 20 20 20 20 20 20 20 19 18 19 19 19 19 19 19 19 19 18 18 18 18 18 18 18 18 18 18 18 18 18 17 17 17 17
27 29 29 30 30 30 30 30 29 30 29 28 27 27 24 20 20 20 19 19 19 19 19 18 18 18 19 19 19 19 19 18 18 18 18 18 18 18 18 18 18 18 18 18 17 17 17 17 17
26 29 30 30 30 30 30 29 29 29 29 27 26 27 25 20 19 19 19 19 19 19 19 18 18 18 18 18 18 19 18 18 18 18 18 18 18 18 17 17 17 17 17 17 17 17 17 17 17
25 29 30 30 30 30 30 30 29 27 27 26 25 25 23 20 19 19 19 19 18 18 18 18 18 18 18 17 18 18 18 18 18 18 18 18 17 17 17 16 17 17 17 17 17 17 17 17 17
27 29 30 30 30 30 30 29 29 28 28 27 24 22 21 20 19 19 19 18 18 18 18 18 18 18 18 18 17 17 17 18 17 17 17 17 17 17 17 17 17 17 17 17 17 17 17 17 17
28 29 30 30 30 30 30 30 29 29 29 28 26 23 20 20 19 19 19 19 18 18 18 18 18 18 18 18 18 18 17 17 17 17 17 17 17 17 17 17 17 17 17 16 17 17 16 17 17
29 29 29 29 29 29 29 29 29 28 28 26 25 23 21 20 20 19 19 19 18 18 18 18 17 17 18 18 18 18 17 17 17 17 17 17 17 17 17 17 16 16 16 16 16 16 16 16 16
29 29 29 30 29 29 29 29 29 28 26 24 24 22 21 20 20 19 19 18 18 18 18 18 17 18 18 18 17 17 17 17 17 17 17 17 17 17 17 16 16 16 16 16 16 16 16 16 16
30 29 30 30 30 29 29 29 28 27 25 24 23 22 21 20 20 19 18 18 18 18 17 17 17 18 18 18 17 17 17 17 17 17 17 17 17 17 16 16 16 16 16 16 16 16 16 16 16
28 29 31 31 30 30 29 30 29 26 25 24 23 22 21 20 19 19 18 18 18 18 17 17 17 17 18 17 17 17 17 17 17 17 17 17 17 17 16 16 16 16 16 16 16 16 16 16 16
30 30 30 31 30 30 29 29 28 25 25 24 23 22 21 19 19 19 18 18 18 17 17 17 17 17 18 17 17 17 17 17 17 17 17 17 17 17 16 16 16 16 16 16 16 16 16 16 16
30 30 30 30 30 30 30 29 28 26 25 25 23 22 21 20 19 18 18 18 18 18 17 18 17 17 17 17 17 17 17 17 17 17 17 17 17 16 16 16 16 16 16 16 16 16 16 16 16
29 29 30 30 30 30 30 29 28 26 25 25 23 22 21 20 19 19 18 18 18 17 17 18 18 17 17 17 17 17 17 17 17 17 17 17 16 16 16 16 16 16 16 15 15 15 15 16 16
29 29 29 30 30 29 29 29 29 27 25 25 24 22 21 21 20 19 18 18 17 17 17 18 17 18 17 17 17 17 17 17 17 17 17 17 16 16 16 16 16 15 15 15 15 15 15 16 16
28 28 29 30 30 29 29 29 29 27 26 25 24 23 22 21 20 18 18 18 18 17 17 17 17 18 17 17 17 17 17 17 17 16 17 16 16 16 16 15 15 15 15 15 15 15 16 16 16
29 29 29 29 29 29 29 29 28 27 26 24 24 23 22 21 20 19 18 18 18 17 17 17 17 17 17 17 17 17 17 17 17 16 16 16 16 16 15 15 15 15 15 15 15 15 15 16 16
28 30 29 29 29 29 29 28 29 28 27 26 25 24 23 22 20 19 18 18 18 18 17 17 17 17 17 17 17 17 17 17 17 17 16 16 16 15 15 15 15 15 15 15 15 15 15 15 16
29 29 29 29 29 29 29 28 29 28 28 27 26 24 23 22 21 20 19 18 18 18 17 17 17 17 17 17 17 17 17 17 17 16 16 16 16 16 15 15 15 15 15 15 15 15 15 15 16
29 28 28 28 29 28 28 28 28 29 28 27 27 25 23 22 21 20 19 18 18 17 17 17 17 17 17 17 17 17 17 17 17 17 16 16 16 15 15 15 15 15 15 15 15 14 15 15 15
28 28 28 27 28 28 28 28 28 28 28 27 27 25 23 22 21 20 19 18 18 17 17 17 17 17 17 17 17 17 17 17 17 17 16 16 16 16 16 15 15 15 15 15 15 15 15 14 14
29 29 27 27 27 28 28 28 29 28 27 26 26 25 24 23 22 21 20 19 18 18 17 17 17 17 17 17 17 17 17 17 17 17 16 16 16 16 16 16 15 15 15 15 15 14 14 14 14
28 29 30 28 28 28 28 29 29 28 27 27 26 25 24 23 22 21 20 19 18 18 18 17 17 17 17 17 17 17 17 17 17 17 17 16 16 16 16 16 15 15 15 15 15 15 14 14 14
29 30 29 28 27 27 28 28 28 28 27 27 26 25 24 23 22 21 20 20 19 18 18 17 17 17 17 17 17 17 17 17 17 17 16 16 16 16 16 16 16 16 15 15 15 15 14 14 14
28 28 28 29 28 27 27 28 29 28 28 27 26 25 24 23 22 21 20 20 19 18 18 17 17 17 17 17 17 17 17 17 17 17 17 16 16 16 16 16 16 16 16 15 15 15 14 14 14
29 29 28 27 27 27 28 28 29 28 28 27 26 25 24 23 22 21 20 19 19 18 18 18 17 17 17 17 17 17 17 17 17 17 17 17 16 16 16 16 16 16 15 16 16 15 15 14 14
Wind_Speed
10 7 5 4 5 2 4 4 3 2 2 1 2 1 2 1 2 3 5 17 20 21 22 22 19 19 18 17 17 17 17 17 16 15 14 13 12 11 11 11 10 10 9 10 10 10 10 10 10
6 4 5 5 4 1 5 4 3 4 2 2 2 3 2 0 3 5 9 17 21 22 22 21 21 19 18 18 17 17 17 16 15 15 14 13 12 11 11 11 10 10 10 10 10 10 9 9 10
5 6 5 4 2 3 4 4 3 2 2 2 2 1 2 1 3 5 10 20 21 20 21 21 22 20 19 18 17 17 16 16 15 14 13 12 12 11 11 10 10 10 10 10 10 10 9 9 9
4 5 5 5 0 2 3 3 2 1 2 3 3 1 2 3 2 6 15 21 21 20 20 23 21 20 19 18 17 17 16 15 15 14 13 12 11 11 11 10 10 10 10 10 10 9 9 8 8
6 5 6 3 2 2 2 3 3 3 2 3 4 1 2 3 4 10 17 20 20 20 20 23 21 20 19 18 17 16 16 15 14 13 12 12 11 11 10 10 10 10 9 9 9 8 8 7 7
5 5 4 2 4 2 2 2 3 4 3 3 4 3 2 5 8 13 17 18 19 18 19 22 21 20 19 18 17 16 15 15 14 13 12 11 11 10 10 10 9 9 9 9 8 8 7 6 6
6 4 2 2 2 2 2 2 4 4 4 4 3 2 4 7 10 14 15 16 17 17 16 18 19 18 18 17 17 16 15 14 13 12 11 11 10 10 9 9 8 8 8 7 7 7 6 6 6
5 4 3 0 2 3 3 2 3 6 3 1 4 3 4 10 13 15 15 15 15 15 15 15 16 17 17 16 16 15 14 14 13 12 11 10 10 9 8 9 8 8 7 7 6 6 6 5 5
5 6 2 2 4 5 4 5 3 3 3 4 3 0 6 15 16 17 16 14 15 14 13 14 14 14 15 15 16 15 14 13 13 12 11 9 8 9 8 8 7 6 6 6 6 5 5 4 6
5 6 2 5 6 8 9 8 6 5 7 6 5 5 11 16 17 19 19 18 18 17 14 12 13 13 13 12 14 12 12 13 10 10 10 7 6 5 6 10 6 5 6 6 5 5 6 7 6
5 6 6 7 7 10 11 8 6 8 8 6 7 10 14 17 17 18 18 18 18 17 15 13 13 12 12 9 10 9 9 10 9 9 8 6 6 5 5 6 7 6 6 5 7 6 5 3 1
7 9 9 9 10 10 10 7 5 7 5 3 3 10 15 17 17 18 18 18 17 16 15 14 13 11 10 10 9 9 8 8 8 9 8 7 4 3 3 3 3 4 4 3 3 3 2 2 2
10 9 9 10 11 9 7 6 6 4 2 0 5 11 14 14 15 15 16 16 16 16 14 14 12 11 10 8 7 8 7 8 8 8 7 6 4 3 3 3 2 2 3 4 3 2 2 2 3
7 10 12 9 6 4 6 5 4 2 1 3 6 9 11 12 13 14 15 16 16 16 15 13 12 12 11 9 7 6 8 7 7 7 7 6 4 4 3 4 3 2 2 1 2 2 3 2 2
9 11 9 4 4 3 6 6 2 0 2 4 6 7 9 10 11 13 15 16 16 16 15 14 13 12 11 10 9 7 7 8 6 6 7 6 5 5 4 3 4 2 2 3 2 3 3 3 3
9 9 7 1 2 2 6 5 4 2 3 4 5 7 8 9 11 11 12 14 15 15 15 14 12 13 12 10 8 7 7 7 6 6 6 6 5 5 4 3 3 3 3 3 2 3 3 3 3
9 7 5 2 1 4 6 6 2 2 3 4 5 7 8 9 10 11 12 14 14 14 14 14 13 13 12 10 8 7 6 6 6 6 6 6 6 6 5 3 3 3 3 2 3 3 3 3 3
5 6 5 6 4 6 7 6 2 2 3 4 5 7 8 9 10 11 12 13 13 13 14 14 13 12 12 9 8 6 6 6 6 6 6 7 6 6 5 4 4 4 3 3 2 2 2 2 3
8 9 9 6 5 7 7 6 3 2 4 4 6 7 7 8 8 10 11 12 13 14 13 13 14 13 11 9 9 9 8 7 7 6 7 7 6 6 5 3 4 4 3 3 4 4 5 4 3
10 11 10 6 4 6 8 7 2 2 4 4 6 7 7 8 9 11 12 13 14 14 14 13 14 13 13 10 9 7 7 7 6 6 7 7 7 7 6 4 4 4 3 4 4 3 3 4 4
12 12 9 9 8 6 7 7 2 3 4 4 6 7 8 9 11 11 12 13 13 14 14 13 14 13 13 12 9 8 7 6 6 7 7 7 7 7 5 5 4 3 4 4 4 4 5 4 4
13 8 8 9 10 7 5 8 1 2 4 5 6 7 8 10 11 11 12 12 12 12 12 13 13 13 13 12 11 12 10 9 9 8 7 8 8 7 7 6 5 4 3 3 5 4 4 4 4
11 5 7 9 10 11 7 8 3 2 2 3 6 7 8 10 11 11 12 12 12 12 12 12 13 13 13 13 14 13 11 9 8 8 9 8 8 8 7 7 6 5 3 3 2 3 4 4 5
7 6 8 9 11 11 6 7 5 1 2 2 4 6 8 9 10 11 11 11 11 11 12 12 13 13 14 14 14 14 13 11 11 10 10 9 7 8 9 8 7 6 4 4 4 3 4 3 3
10 10 9 10 9 7 1 6 3 2 1 2 4 6 8 10 10 11 11 12 12 12 12 13 14 13 13 13 13 13 13 13 13 12 10 9 8 8 9 9 8 7 5 5 5 4 3 4 4
13 14 11 9 8 6 3 5 1 1 1 3 4 6 8 9 10 11 12 12 12 13 13 13 14 13 13 14 13 12 12 11 10 11 10 10 8 8 9 10 9 8 8 7 6 5 5 4 4
11 13 12 11 12 10 6 4 3 4 4 5 6 7 8 8 9 10 11 12 12 13 13 13 14 13 13 14 13 12 12 12 11 11 10 9 8 7 9 10 10 9 9 8 7 6 6 5 6
10 8 7 10 9 9 7 6 3 5 5 6 6 7 8 8 9 9 10 11 11 11 12 12 13 13 12 13 13 11 12 12 11 10 11 9 9 8 9 10 10 10 9 9 9 7 7 7 6
10 10 10 9 9 9 8 3 2 4 5 6 7 7 8 9 9 9 9 10 10 11 12 12 12 12 12 12 12 12 12 12 12 11 11 10 9 9 10 10 10 10 10 10 9 9 8 9 8
11 12 12 11 10 10 10 5 5 4 5 5 6 7 8 8 9 9 9 10 10 11 11 11 11 12 11 11 11 11 11 11 11 11 10 10 10 10 10 10 10 10 10 10 11 11 10 10 10
Wind_Direction
194 207 234 248 244 223 53 51 19 36 50 74 149 216 286 298 315 47 116 153 152 152 149 154 154 151 146 142 138 136 135 135 134 134 134 133 133 129 125 121 117 113 109 106 104 103 104 105 107
197 215 238 248 265 86 69 42 29 26 43 131 183 225 260 242 55 101 140 153 154 153 152 156 152 152 147 144 141 138 136 135 134 134 133 133 131 129 127 122 119 114 109 106 106 105 104 106 108
204 237 263 258 268 24 44 44 34 52 149 202 203 239 300 30 116 139 151 157 157 153 152 149 154 152 149 146 144 141 138 137 135 133 133 132 130 128 123 120 117 114 109 106 105 104 104 105 109
220 232 242 253 322 44 346 355 346 212 187 214 228 185 111 62 116 144 152 160 157 153 154 149 156 153 150 148 146 143 140 139 136 135 133 131 129 125 121 119 117 113 108 105 103 103 105 106 109
242 257 241 210 76 45 327 322 275 254 218 210 230 255 121 98 121 143 156 162 158 156 154 150 155 153 152 150 148 145 143 141 139 137 135 130 126 121 119 116 114 111 108 105 102 101 102 104 109
240 251 249 88 71 20 323 295 256 264 242 208 231 249 102 110 140 150 158 162 160 158 153 148 154 154 153 152 151 148 145 142 140 138 134 131 125 122 118 115 114 112 109 107 104 102 102 102 104
267 267 287 358 18 23 356 322 278 277 254 222 219 222 129 136 142 149 155 160 158 157 152 151 157 157 156 155 153 150 147 144 141 137 133 129 128 125 122 119 118 118 116 114 110 105 101 98 99
274 271 236 275 332 5 6 307 299 285 282 179 210 232 159 151 148 148 152 155 155 156 155 155 161 158 160 158 156 152 149 147 143 140 138 134 133 131 130 138 121 121 121 121 119 114 107 102 100
261 252 255 6 336 339 340 303 285 269 233 197 207 284 111 144 152 151 153 155 157 161 160 163 160 160 162 159 155 156 152 150 150 148 146 159 156 143 151 112 116 124 123 122 121 123 123 138 135
242 260 337 341 317 316 315 298 279 238 234 216 186 145 138 152 160 162 163 164 165 166 168 167 162 163 163 159 157 162 161 158 166 152 156 160 139 141 129 116 125 127 130 136 130 138 172 215 173
243 272 314 313 311 308 302 289 266 256 260 248 210 175 164 166 169 172 172 170 169 167 169 169 166 166 163 160 161 161 157 158 160 153 155 151 154 154 152 151 151 157 169 163 149 184 193 198 166
255 273 284 292 308 304 299 291 271 263 290 359 197 175 174 177 177 178 177 174 169 170 171 171 167 167 168 165 162 161 161 162 158 155 165 160 162 162 145 165 153 170 160 146 169 168 160 171 184
248 277 290 292 296 300 290 277 276 282 312 85 171 174 181 183 184 182 178 174 169 170 170 170 167 166 167 165 171 164 162 161 155 156 161 169 170 168 160 156 167 181 151 165 174 178 160 177 187
283 287 288 288 293 282 281 275 250 279 228 171 174 179 185 186 184 178 176 175 172 172 171 170 172 172 170 169 172 165 163 162 159 161 162 175 172 166 175 171 174 172 169 138 179 167 185 192 174
280 280 271 251 292 296 287 260 220 239 189 182 180 180 179 180 180 178 179 177 176 174 172 172 176 174 173 172 173 170 165 163 162 157 161 174 175 166 183 175 184 166 164 169 190 173 191 191 181
255 258 262 229 323 318 286 309 81 140 195 193 180 176 175 178 184 180 180 178 175 175 172 173 177 173 172 172 174 166 164 161 162 162 163 173 168 174 190 177 172 165 189 184 179 206 191 185 186
234 256 280 298 354 319 289 310 53 170 209 200 184 175 178 182 186 183 185 181 174 174 172 173 176 173 170 169 170 163 157 162 166 169 168 166 172 174 188 175 147 189 194 195 203 177 209 184 181
258 276 283 303 337 314 299 310 335 193 215 202 186 180 184 191 190 184 180 177 173 173 174 174 175 173 168 167 163 160 162 168 170 169 161 167 172 174 184 176 174 206 192 186 184 169 207 199 196
279 280 286 302 331 309 305 309 318 197 209 204 195 191 191 193 181 175 173 174 173 173 178 182 179 174 172 171 173 173 174 175 173 170 164 173 173 171 191 181 171 211 188 190 184 188 179 197 190
258 267 275 285 325 303 303 299 302 194 213 218 204 196 194 185 175 173 176 179 181 180 183 186 182 178 180 179 176 177 169 173 171 169 165 177 176 177 182 186 187 186 174 186 192 210 211 183 200
248 259 280 301 306 260 290 278 214 160 191 202 204 197 192 185 181 179 182 184 184 185 186 188 187 183 183 179 172 165 161 169 170 175 175 178 180 186 187 183 196 182 205 181 198 205 215 200 195
246 254 274 286 292 301 305 305 287 170 200 199 199 199 192 186 183 182 184 187 187 186 186 186 185 184 182 181 181 180 182 184 183 182 174 175 182 187 186 187 190 202 204 170 202 193 213 223 210
250 268 270 276 282 285 273 290 313 185 243 198 188 193 191 187 185 183 185 188 188 187 185 186 183 185 184 188 189 188 191 188 179 181 172 181 181 192 192 189 189 196 199 180 201 178 224 222 233
232 239 248 253 263 268 280 288 298 330 317 203 176 180 184 184 185 183 184 183 185 188 187 185 183 185 187 190 191 193 191 188 181 183 180 187 185 193 194 196 197 201 193 179 192 197 202 235 245
221 239 247 246 245 260 229 272 297 354 285 224 189 176 175 180 184 183 184 183 183 186 189 187 184 187 187 190 191 194 192 189 188 190 190 195 192 194 193 198 198 203 198 196 195 202 214 207 213
225 237 248 267 274 281 214 263 324 91 188 184 179 169 168 173 179 182 184 185 186 186 187 185 185 189 190 192 192 194 193 194 195 197 196 199 204 200 190 197 200 204 203 204 201 211 207 208 218
224 233 249 261 269 277 270 260 227 184 182 173 168 167 169 169 173 178 181 184 186 187 185 185 184 187 190 193 192 195 196 202 201 195 202 206 207 204 196 200 202 204 204 208 207 221 215 210 223
242 236 229 246 258 268 263 259 247 182 181 172 170 171 168 168 171 171 175 179 182 183 183 183 183 186 189 193 193 194 198 202 202 200 203 209 209 209 204 204 205 206 205 206 213 218 213 218 223
200 217 233 247 260 272 279 286 92 169 182 181 173 169 169 170 168 167 169 175 180 180 181 184 184 183 188 192 192 193 195 198 200 202 207 209 213 209 210 210 209 210 211 210 212 225 216 220 223
232 230 226 240 246 251 273 282 116 150 167 174 166 162 165 166 162 163 164 167 175 179 180 182 183 184 188 188 188 192 194 196 201 204 208 209 213 214 214 216 216 218 220 217 216 223 222 223 225
Height
1513 1514 1515 1515 1508 1499 1498 1494 1492 1492 1493 1497 1498 1499 1498 1499 1502 1509 1511 1511 1514 1518 1521 1524 1528 1531 1533 1536 1538 1539 1541 1543 1544 1546 1547 1548 1549 1550 1551 1552 1553 1554 1555 1555 1556 1557 1557 1558 1558
1516 1515 1516 1512 1501 1501 1500 1493 1492 1493 1496 1499 1500 1500 1500 1501 1505 1508 1509 1512 1515 1519 1522 1525 1528 1532 1534 1537 1539 1541 1542 1544 1546 1547 1548 1549 1550 1552 1552 1553 1554 1555 1556 1557 1558 1558 1559 1560 1560
1516 1516 1515 1504 1498 1499 1498 1491 1492 1495 1498 1499 1499 1501 1501 1503 1506 1508 1509 1511 1516 1520 1524 1526 1529 1532 1535 1538 1540 1542 1544 1545 1547 1548 1550 1551 1552 1553 1554 1555 1556 1557 1558 1558 1559 1560 1561 1561 1562
1517 1516 1512 1501 1496 1493 1493 1491 1493 1495 1497 1499 1499 1500 1503 1506 1507 1507 1508 1512 1517 1521 1525 1527 1530 1533 1536 1539 1541 1543 1545 1547 1548 1550 1551 1552 1554 1555 1556 1556 1557 1558 1559 1560 1561 1562 1563 1564 1564
1517 1512 1501 1496 1493 1491 1491 1492 1493 1493 1495 1498 1499 1498 1502 1506 1505 1506 1508 1513 1517 1521 1526 1527 1531 1534 1537 1540 1542 1544 1546 1548 1550 1551 1552 1554 1555 1556 1557 1558 1559 1560 1560 1561 1562 1564 1565 1566 1566
1514 1506 1498 1496 1493 1491 1490 1491 1492 1492 1494 1497 1498 1498 1503 1505 1505 1507 1510 1514 1518 1522 1526 1528 1531 1535 1538 1540 1543 1545 1547 1549 1551 1552 1554 1555 1556 1557 1558 1559 1560 1561 1562 1563 1564 1565 1566 1567 1568
1512 1502 1497 1495 1494 1491 1490 1491 1491 1491 1492 1495 1498 1498 1503 1505 1506 1508 1511 1514 1518 1523 1527 1529 1532 1535 1538 1541 1543 1546 1548 1550 1552 1553 1555 1556 1557 1558 1559 1560 1561 1562 1563 1564 1565 1566 1567 1569 1569
1511 1502 1494 1492 1494 1491 1489 1491 1492 1492 1492 1496 1498 1497 1500 1504 1505 1507 1511 1515 1518 1523 1527 1530 1534 1536 1539 1541 1544 1546 1549 1551 1552 1554 1556 1557 1558 1559 1560 1561 1562 1563 1564 1565 1566 1567 1569 1570 1571
1511 1503 1494 1491 1493 1489 1488 1489 1491 1493 1493 1495 1497 1498 1500 1501 1504 1507 1511 1515 1518 1522 1527 1530 1534 1536 1540 1542 1544 1547 1549 1551 1553 1555 1556 1558 1560 1561 1562 1563 1563 1564 1564 1565 1566 1568 1569 1570 1572
1508 1497 1491 1491 1491 1489 1489 1489 1489 1491 1491 1493 1496 1499 1499 1500 1503 1506 1509 1512 1517 1521 1526 1529 1533 1536 1540 1543 1544 1547 1550 1552 1554 1556 1557 1559 1560 1562 1563 1562 1563 1564 1565 1566 1567 1568 1570 1571 1574
1503 1496 1491 1491 1491 1490 1488 1487 1487 1487 1486 1489 1493 1497 1498 1500 1502 1505 1508 1512 1515 1520 1524 1528 1532 1535 1539 1542 1544 1547 1550 1552 1554 1556 1557 1559 1561 1562 1564 1564 1565 1565 1566 1567 1567 1569 1571 1573 1573
1501 1496 1494 1492 1490 1489 1487 1486 1486 1486 1487 1490 1492 1494 1496 1498 1500 1503 1507 1511 1515 1519 1523 1527 1531 1534 1538 1541 1544 1546 1549 1552 1554 1555 1557 1559 1561 1562 1563 1564 1565 1566 1567 1567 1569 1570 1571 1571 1572
1498 1494 1492 1490 1489 1487 1487 1485 1485 1486 1488 1489 1491 1493 1495 1497 1499 1502 1506 1510 1513 1518 1522 1526 1529 1532 1536 1539 1543 1546 1549 1551 1553 1555 1557 1559 1561 1562 1563 1564 1564 1566 1567 1567 1568 1569 1570 1571 1572
1494 1493 1490 1487 1486 1486 1485 1483 1485 1485 1488 1489 1491 1492 1495 1497 1498 1500 1503 1507 1511 1516 1520 1524 1528 1531 1535 1538 1542 1545 1549 1550 1553 1555 1557 1558 1560 1561 1562 1563 1564 1565 1566 1567 1567 1568 1569 1571 1571
1495 1491 1484 1483 1484 1483 1484 1479 1482 1485 1487 1489 1490 1492 1494 1496 1498 1499 1502 1505 1510 1515 1519 1523 1527 1531 1534 1538 1541 1545 1548 1550 1553 1554 1556 1557 1559 1560 1561 1563 1564 1565 1565 1565 1567 1567 1569 1570 1571
1489 1486 1484 1480 1482 1482 1484 1480 1481 1485 1486 1488 1490 1492 1494 1496 1498 1499 1501 1505 1510 1514 1518 1522 1526 1530 1533 1537 1541 1545 1547 1550 1552 1554 1555 1557 1558 1559 1561 1562 1563 1563 1565 1565 1566 1567 1569 1570 1570
1485 1486 1485 1480 1479 1479 1480 1478 1479 1483 1485 1486 1488 1491 1493 1495 1498 1499 1501 1505 1508 1512 1516 1520 1524 1528 1532 1535 1539 1543 1545 1548 1551 1553 1555 1556 1557 1558 1560 1561 1562 1562 1564 1565 1566 1567 1568 1569 1570
1488 1486 1484 1482 1477 1478 1477 1476 1477 1481 1483 1485 1487 1489 1492 1494 1496 1498 1500 1504 1507 1511 1515 1519 1523 1527 1530 1534 1538 1541 1544 1547 1550 1552 1553 1555 1556 1557 1559 1560 1560 1562 1563 1563 1564 1565 1566 1568 1569
1487 1487 1485 1480 1476 1477 1476 1475 1475 1479 1481 1483 1485 1488 1490 1492 1495 1498 1500 1503 1506 1509 1512 1517 1521 1525 1529 1532 1536 1540 1543 1546 1549 1551 1552 1554 1555 1556 1557 1559 1559 1560 1562 1562 1563 1564 1565 1567 1568
1487 1487 1482 1476 1475 1477 1475 1473 1472 1476 1479 1481 1483 1486 1488 1491 1494 1496 1498 1501 1503 1507 1510 1514 1518 1522 1526 1530 1534 1538 1542 1545 1547 1549 1550 1552 1554 1555 1557 1557 1559 1560 1560 1561 1562 1563 1565 1566 1567
1484 1484 1480 1480 1475 1472 1475 1471 1470 1473 1478 1480 1482 1484 1486 1488 1491 1494 1496 1499 1502 1505 1508 1511 1515 1519 1524 1528 1532 1535 1539 1543 1545 1548 1549 1551 1552 1554 1556 1556 1558 1558 1560 1561 1561 1562 1564 1566 1566
1483 1475 1478 1479 1479 1474 1476 1480 1469 1469 1473 1476 1479 1481 1484 1487 1489 1492 1494 1497 1500 1503 1506 1509 1513 1517 1521 1525 1529 1533 1536 1540 1543 1546 1548 1549 1551 1553 1554 1555 1556 1557 1559 1559 1560 1561 1563 1564 1566
1476 1474 1477 1477 1477 1477 1472 1477 1469 1466 1469 1470 1474 1478 1481 1484 1487 1490 1493 1495 1498 1501 1504 1507 1510 1514 1518 1522 1526 1530 1534 1538 1541 1544 1546 1548 1550 1551 1553 1554 1555 1556 1558 1558 1559 1560 1561 1563 1565
1474 1477 1476 1475 1473 1483 1474 1479 1474 1463 1466 1467 1471 1476 1479 1482 1485 1488 1491 1494 1496 1499 1502 1505 1508 1511 1515 1519 1523 1527 1531 1535 1538 1541 1544 1546 1548 1550 1551 1553 1554 1555 1557 1557 1558 1559 1560 1561 1562
1474 1481 1486 1487 1484 1480 1469 1475 1470 1462 1464 1466 1469 1473 1477 1480 1483 1486 1489 1492 1494 1497 1499 1502 1505 1509 1513 1516 1520 1524 1528 1532 1535 1539 1542 1545 1547 1549 1550 1552 1553 1554 1555 1556 1557 1557 1559 1560 1560
1469 1472 1486 1494 1486 1473 1469 1473 1463 1461 1464 1467 1469 1472 1475 1478 1481 1484 1486 1489 1492 1494 1497 1500 1503 1506 1510 1514 1517 1522 1526 1529 1533 1536 1540 1542 1545 1547 1549 1550 1551 1553 1554 1555 1555 1557 1558 1558 1559
1467 1467 1460 1471 1473 1478 1468 1463 1459 1460 1463 1465 1467 1470 1473 1476 1479 1482 1485 1487 1490 1492 1495 1498 1501 1504 1508 1511 1515 1519 1523 1526 1530 1533 1537 1540 1543 1545 1546 1548 1549 1551 1552 1553 1554 1556 1556 1556 1557
1458 1457 1465 1471 1484 1485 1472 1466 1462 1460 1460 1462 1466 1469 1472 1475 1478 1480 1483 1486 1488 1490 1493 1496 1499 1502 1505 1509 1513 1517 1520 1524 1527 1531 1534 1537 1540 1542 1544 1546 1547 1549 1550 1551 1552 1553 1554 1554 1555
1463 1464 1462 1462 1464 1477 1478 1467 1449 1454 1457 1460 1464 1468 1471 1474 1476 1479 1482 1484 1487 1489 1492 1494 1497 1500 1503 1507 1510 1514 1518 1521 1525 1528 1531 1534 1537 1539 1541 1543 1545 1546 1548 1549 1549 1551 1552 1552 1553
1452 1454 1458 1468 1469 1466 1468 1463 1448 1452 1456 1459 1462 1467 1470 1473 1475 1478 1480 1483 1485 1488 1490 1493 1495 1498 1501 1504 1508 1511 1515 1518 1522 1525 1528 1531 1534 1536 1538 1540 1542 1544 1545 1546 1547 1548 1549 1549 1550